Albany, GA

12:27 PM EDT on August 31, 2016 (GMT -0400)
Southwest Georgia Regional

Weather History for KABY - November, 2013

Change the Weather History Date:

Saturday, November 23, 2013

  Actual Average Record
Temperature  
Mean Temperature 61 °F 56 °F  
Max Temperature 67 °F 69 °F 81 °F (2010)
Min Temperature 55 °F 44 °F 22 °F (1976)
Degree Days  
Heating Degree Days 4 9  
Month to date heating degree days 126 147  
Since 1 July heating degree days 167 197  
Cooling Degree Days 0 1  
Month to date cooling degree days 20 29  
Year to date cooling degree days 2408 2532  
Growing Degree Days 10 (Base 50)    
Moisture  
Dew Point 58 °F    
Average Humidity 74    
Maximum Humidity 100    
Minimum Humidity 47    
Precipitation  
Precipitation T in 0.12 in 2.24 in (2014)
Month to date precipitation 1.39 2.17  
Year to date precipitation 44.28 43.80  
Sea Level Pressure  
Sea Level Pressure 30.16 in    
Wind  
Wind Speed 6 mph (NNW)    
Max Wind Speed 16 mph    
Max Gust Speed 23 mph    
Visibility 7 miles    
Events Rain    
T = Trace of Precipitation, MM = Missing Value Source: NWS Daily Summary

Daily Weather History Graph

Daily Weather History Graph

Search for Another Location

Airport or City:

Trip Planner

Search our weather history database for the weather conditions in past years. The results will help you decide how hot, cold, wet, or windy it might be!

Date:

Astronomy

Nov. 23, 2013 Rise Set
Actual Time 7:11 AM EST 5:34 PM EST
Civil Twilight 6:45 AM EST 6:00 PM EST
Nautical Twilight 6:15 AM EST 6:30 PM EST
Astronomical Twilight 5:46 AM EST 6:59 PM EST
Moon 10:53 PM EST (11/23) 11:35 AM EST (11/23)
Length of Visible Light 11h 15m
Length of Day
10h 22m
Waning Gibbous, 70% of the Moon is Illuminated
Nov 23
Waning Gibbous
Nov 25
Last Quarter
Dec 2
New
Dec 9
First Quarter
Dec 17
Full

Hourly Weather History & Observations

Time (EST) Temp. Dew Point Humidity Pressure Visibility Wind Dir Wind Speed Gust Speed Precip Events Conditions
12:53 AM 60.1 °F 59.0 °F 96% 30.18 in 6.0 mi Calm Calm - N/A   Scattered Clouds
1:53 AM 60.1 °F 59.0 °F 96% 30.17 in 7.0 mi Calm Calm - N/A   Scattered Clouds
2:53 AM 61.0 °F 60.1 °F 97% 30.17 in 6.0 mi NW 8.1 mph - N/A   Mostly Cloudy
3:35 AM 62.6 °F 60.8 °F 94% 30.16 in 6.0 mi WNW 3.5 mph - 0.00 in   Overcast
3:53 AM 62.1 °F 61.0 °F 96% 30.16 in 6.0 mi NNW 3.5 mph - 0.00 in   Overcast
4:32 AM 62.6 °F 62.6 °F 100% 30.16 in 6.0 mi Calm Calm - 0.00 in   Overcast
4:48 AM 62.6 °F 62.6 °F 100% 30.16 in 5.0 mi Calm Calm - 0.00 in   Overcast
4:53 AM 63.0 °F 62.1 °F 97% 30.15 in 5.0 mi Calm Calm - 0.00 in   Overcast
5:53 AM 63.0 °F 63.0 °F 100% 30.15 in 6.0 mi Calm Calm - N/A   Overcast
6:34 AM 62.6 °F 62.6 °F 100% 30.15 in 4.0 mi Calm Calm - N/A   Overcast
6:53 AM 63.0 °F 62.1 °F 97% 30.15 in 4.0 mi Calm Calm - 0.00 in Rain Light Rain
7:38 AM 62.6 °F 62.6 °F 100% 30.17 in 2.5 mi Calm Calm - 0.00 in Rain Light Rain
7:45 AM 62.6 °F 62.6 °F 100% 30.17 in 3.0 mi Calm Calm - 0.00 in   Overcast
7:53 AM 63.0 °F 62.1 °F 97% 30.17 in 3.0 mi Calm Calm - 0.00 in   Overcast
8:53 AM 64.0 °F 64.0 °F 100% 30.18 in 4.0 mi Calm Calm - N/A   Overcast
9:53 AM 64.9 °F 63.0 °F 93% 30.19 in 7.0 mi NNW 4.6 mph - N/A   Overcast
10:53 AM 64.9 °F 63.0 °F 93% 30.18 in 5.0 mi NNW 4.6 mph - N/A   Overcast
11:53 AM 64.0 °F 62.1 °F 93% 30.17 in 5.0 mi NW 8.1 mph - N/A   Overcast
12:53 PM 64.9 °F 62.1 °F 90% 30.15 in 7.0 mi NW 8.1 mph - N/A   Overcast
1:50 PM 66.2 °F 60.8 °F 83% 30.13 in 9.0 mi Variable 3.5 mph - N/A   Overcast
1:53 PM 66.9 °F 61.0 °F 81% 30.12 in 9.0 mi NW 5.8 mph - N/A   Overcast
2:53 PM 66.9 °F 61.0 °F 81% 30.12 in 10.0 mi NNW 6.9 mph - N/A   Overcast
3:53 PM 64.9 °F 59.0 °F 81% 30.13 in 10.0 mi NNW 11.5 mph - N/A   Overcast
3:54 PM 64.4 °F 59.0 °F 83% 30.14 in 10.0 mi NW 10.4 mph - N/A   Overcast
4:53 PM 64.9 °F 57.9 °F 78% 30.13 in 10.0 mi NNW 9.2 mph - N/A   Overcast
5:53 PM 62.1 °F 55.0 °F 78% 30.16 in 10.0 mi NW 6.9 mph - N/A   Mostly Cloudy
6:53 PM 61.0 °F 55.0 °F 81% 30.17 in 10.0 mi NW 5.8 mph - N/A   Mostly Cloudy
7:00 PM 60.8 °F 55.4 °F 82% 30.17 in 10.0 mi NW 9.2 mph - N/A   Mostly Cloudy
7:53 PM 60.1 °F 53.1 °F 78% 30.18 in 10.0 mi NNW 9.2 mph - N/A   Partly Cloudy
8:53 PM 59.0 °F 51.1 °F 75% 30.19 in 10.0 mi North 11.5 mph - N/A   Overcast
9:53 PM 57.0 °F 41.0 °F 55% 30.21 in 10.0 mi NNW 11.5 mph - N/A   Overcast
10:53 PM 55.9 °F 36.0 °F 47% 30.22 in 10.0 mi North 11.5 mph 23.0 mph N/A   Overcast
11:53 PM 55.0 °F 32.0 °F 42% 30.23 in 10.0 mi North 11.5 mph 21.9 mph N/A   Overcast